Find Local Weather

World > North America > United States > Ohio

Delphos, Ohio Regional Weather

Lat: 40.84N, Lon: 84.34W
Wx Zone: OHZ024
Feedback
Expires:201812150700;;816772
ASUS41 KCLE 150612
RWRCLE
OHIO REGIONAL WEATHER ROUNDUP
NATIONAL WEATHER SERVICE WILMINGTON, OH
100 AM EST SAT DEC 15 2018

NOTE: "FAIR" INDICATES FEW OR NO CLOUDS BELOW 12,000 FEET WITH NO
SIGNIFICANT WEATHER AND/OR OBSTRUCTIONS TO VISIBILITY.


OHZ001>008-015>018-024>027-034-035-043-044-150700-
   NORTHWEST OHIO
  
CITY           SKY/WX    TMP DP  RH WIND       PRES   REMARKS
DEFIANCE       CLOUDY    37  36  96 NE7       30.14S FOG              
FINDLAY        MOCLDY    41  39  93 NE13      30.08F FOG              
TOLEDO EXPRESS CLOUDY    39  38  96 N5        30.14F FOG              
TOLEDO EXEC    FOG       39  38  96 NE8       30.14F VSB 1/4          
LIMA           FAIR      42  40  92 NE8       30.05F FOG              
$$
 

SKY/WX - Weather  TMP - Temperature  DP - Dew Point  RH - Relative Humidity
WIND - Wind Direction/Speed PRES - Barometric Pressure